De Soto, IL

4:55 AM CST on February 25, 2017 (GMT -0600)
Southern Illinois

Weather History for KMDH - December, 2011

Change the Weather History Date:

Tuesday, December 13, 2011

  Actual Average Record
Temperature  
Mean Temperature 44 °F -  
Max Temperature 48 °F 44 °F 71 °F (2015)
Min Temperature 39 °F 27 °F -8 °F (1962)
Degree Days  
Heating Degree Days 22    
Moisture  
Dew Point 43 °F    
Average Humidity 94    
Maximum Humidity 100    
Minimum Humidity 86    
Precipitation  
Precipitation 0.39 in - - ()
Sea Level Pressure  
Sea Level Pressure 30.39 in    
Wind  
Wind Speed 3 mph (SSE)    
Max Wind Speed 9 mph    
Max Gust Speed -    
Visibility 5 miles    
Events Rain    
Averages and records for this station are not official NWS values.
T = Trace of Precipitation, MM = Missing Value Source: NWS Daily Summary

Daily Weather History Graph

Daily Weather History Graph

Search for Another Location

Airport or City:

Trip Planner

Search our weather history database for the weather conditions in past years. The results will help you decide how hot, cold, wet, or windy it might be!

Date:

Astronomy

Dec. 13, 2011 Rise Set
Actual Time 7:03 AM CST 4:38 PM CST
Civil Twilight 6:34 AM CST 5:07 PM CST
Nautical Twilight 6:01 AM CST 5:40 PM CST
Astronomical Twilight 5:29 AM CST 6:12 PM CST
Moon 7:51 PM CST (12/13) 9:15 AM CST (12/13)
Length of Visible Light 10h 33m
Length of Day
9h 35m
Waning Gibbous, 90% of the Moon is Illuminated
Dec 13
Waning Gibbous
Dec 17
Last Quarter
Dec 24
New
Jan 1
First Quarter
Jan 9
Full

Hourly Weather History & Observations

Time (CST) Temp. Windchill Dew Point Humidity Pressure Visibility Wind Dir Wind Speed Gust Speed Precip Events Conditions
12:52 AM 39.9 °F - 36.0 °F 86% 30.39 in 10.0 mi Calm Calm - N/A   Overcast
1:52 AM 39.9 °F - 37.9 °F 93% 30.40 in 10.0 mi Calm Calm - N/A   Overcast
2:52 AM 41.0 °F - 37.0 °F 86% 30.41 in 10.0 mi Calm Calm - 0.00 in   Overcast
3:52 AM 41.0 °F - 37.0 °F 86% 30.42 in 10.0 mi Calm Calm - N/A   Overcast
4:52 AM 41.0 °F - 39.0 °F 93% 30.43 in 6.0 mi Calm Calm - 0.01 in Rain Light Rain
5:52 AM 39.9 °F - 37.9 °F 93% 30.44 in 4.0 mi Calm Calm - 0.08 in Rain Rain
6:52 AM 41.0 °F 38.0 °F 39.9 °F 96% 30.43 in 5.0 mi SE 4.6 mph - 0.08 in Rain Light Rain
7:52 AM 42.1 °F - 39.9 °F 92% 30.46 in 3.0 mi Calm Calm - 0.01 in Rain Light Rain
8:16 AM 42.8 °F - 39.2 °F 87% 30.47 in 2.0 mi Calm Calm - 0.02 in Rain Light Rain
8:32 AM 42.8 °F - 41.0 °F 93% 30.46 in 1.5 mi Calm Calm - 0.03 in Rain Light Rain
8:52 AM 42.1 °F 40.2 °F 41.0 °F 96% 30.46 in 1.8 mi SE 3.5 mph - 0.05 in Rain Light Rain
9:52 AM 43.0 °F - 42.1 °F 97% 30.48 in 1.5 mi Calm Calm - 0.04 in Rain Light Rain
9:54 AM 42.8 °F - 42.8 °F 100% 30.47 in 2.0 mi Calm Calm - 0.00 in Rain Light Rain
10:14 AM 44.6 °F 42.2 °F 42.8 °F 93% 30.47 in 3.0 mi South 4.6 mph - 0.01 in Rain Light Rain
10:31 AM 44.6 °F 42.2 °F 42.8 °F 93% 30.47 in 2.0 mi South 4.6 mph - 0.02 in Rain Light Rain
10:52 AM 45.0 °F 42.6 °F 43.0 °F 93% 30.47 in 2.0 mi South 4.6 mph - 0.02 in Rain Light Rain
10:59 AM 44.6 °F 41.4 °F 42.8 °F 93% 30.46 in 3.0 mi South 5.8 mph - 0.00 in Rain Light Rain
11:17 AM 44.6 °F 40.7 °F 44.6 °F 100% 30.45 in 4.0 mi South 6.9 mph - 0.00 in Rain Light Rain
11:34 AM 44.6 °F 40.7 °F 44.6 °F 100% 30.44 in 2.5 mi South 6.9 mph - 0.00 in Rain Light Rain
11:52 AM 46.0 °F 41.9 °F 44.1 °F 93% 30.44 in 2.5 mi South 8.1 mph - 0.01 in Rain Light Rain
12:52 PM 46.9 °F - 44.1 °F 90% 30.40 in 2.5 mi South 9.2 mph - 0.04 in Rain Light Rain
1:52 PM 48.0 °F - 46.0 °F 93% 30.38 in 2.5 mi SSW 6.9 mph - 0.03 in Rain Light Rain
1:59 PM 48.2 °F - 46.4 °F 93% 30.37 in 2.5 mi South 5.8 mph - 0.00 in Rain Light Rain
2:08 PM 48.2 °F - 46.4 °F 93% 30.37 in 7.0 mi South 8.1 mph - 0.00 in Rain Light Rain
2:32 PM 48.2 °F - 44.6 °F 87% 30.37 in 7.0 mi SSW 8.1 mph - 0.01 in Rain Light Rain
2:52 PM 46.9 °F - 46.0 °F 97% 30.37 in 7.0 mi SSE 3.5 mph - 0.01 in   Overcast
3:06 PM 46.4 °F 43.5 °F 46.4 °F 100% 30.36 in 7.0 mi South 5.8 mph - 0.00 in Rain Light Rain
3:52 PM 46.9 °F - 45.0 °F 93% 30.38 in 10.0 mi SW 3.5 mph - 0.01 in   Overcast
4:52 PM 46.0 °F 43.1 °F 45.0 °F 96% 30.37 in 9.0 mi SSE 5.8 mph - 0.00 in   Overcast
5:07 PM 46.4 °F 43.5 °F 44.6 °F 93% 30.37 in 8.0 mi South 5.8 mph - N/A   Overcast
5:16 PM 46.4 °F 44.3 °F 44.6 °F 93% 30.36 in 7.0 mi South 4.6 mph - N/A   Overcast
5:52 PM 46.0 °F 44.8 °F 45.0 °F 96% 30.36 in 6.0 mi SE 3.5 mph - N/A   Overcast
6:25 PM 46.4 °F 45.2 °F 44.6 °F 93% 30.35 in 6.0 mi SSE 3.5 mph - N/A   Overcast
6:36 PM 46.4 °F 45.2 °F 44.6 °F 93% 30.35 in 6.0 mi SE 3.5 mph - N/A   Overcast
6:43 PM 46.4 °F 45.2 °F 44.6 °F 93% 30.35 in 5.0 mi SE 3.5 mph - N/A   Overcast
6:52 PM 46.0 °F - 45.0 °F 96% 30.36 in 4.0 mi Calm Calm - N/A   Overcast
7:52 PM 46.0 °F 43.1 °F 45.0 °F 96% 30.33 in 5.0 mi SSE 5.8 mph - N/A   Overcast
8:52 PM 46.9 °F - 45.0 °F 93% 30.33 in 4.0 mi Calm Calm - N/A   Overcast
9:52 PM 46.0 °F 43.9 °F 45.0 °F 96% 30.30 in 4.0 mi SSE 4.6 mph - N/A   Mostly Cloudy
10:09 PM 46.4 °F 42.9 °F 46.4 °F 100% 30.29 in 5.0 mi SSE 6.9 mph - N/A   Mostly Cloudy
10:52 PM 48.9 °F - 46.0 °F 90% 30.29 in 5.0 mi SSE 4.6 mph - N/A   Overcast
11:11 PM 48.2 °F - 46.4 °F 93% 30.28 in 5.0 mi SSE 5.8 mph - N/A   Overcast
11:52 PM 48.9 °F - 46.9 °F 93% 30.27 in 5.0 mi South 8.1 mph - N/A   Overcast